Weather History for KMQE - December, 2012

Change the Weather History Date:

Sunday, December 9, 2012

  Actual Average (KBOS) Record (KBOS)
Temperature  
Mean Temperature 42 °F 37 °F  
Max Temperature 45 °F 43 °F 70 °F (1966)
Min Temperature 39 °F 31 °F -8 °F (1902)
Degree Days  
Heating Degree Days 23 28  
Month to date heating degree days 240  
Since 1 July heating degree days 1295  
Cooling Degree Days 0 0  
Month to date cooling degree days 0  
Year to date cooling degree days 747  
Moisture  
Dew Point 35 °F    
Average Humidity 78    
Maximum Humidity 96    
Minimum Humidity 58    
Precipitation  
Precipitation 0.08 in 0.13 in 2.90 in (2014)
Month to date precipitation 1.18  
Year to date precipitation 41.17  
Sea Level Pressure  
Sea Level Pressure 30.20 in    
Wind  
Wind Speed 12 mph (North)    
Max Wind Speed 15 mph    
Max Gust Speed 22 mph    
T = Trace of Precipitation, MM = Missing Value Source: NWS Daily Summary

Daily Weather History Graph

Daily Weather History Graph

Search for Another Location

Airport or City:

Trip Planner

Search our weather history database for the weather conditions in past years. The results will help you decide how hot, cold, wet, or windy it might be!

Date:

Astronomy

Dec. 09, 2012 Rise Set
Actual Time 7:01 AM EST 4:12 PM EST
Civil Twilight 6:30 AM EST 4:43 PM EST
Nautical Twilight 5:54 AM EST 5:19 PM EST
Astronomical Twilight 5:20 AM EST 5:53 PM EST
Moon 2:27 AM EST (12/9) 1:20 PM EST (12/9)
Length of Visible Light 10h 13m
Length of Day
9h 10m
Waning Crescent, 19% of the Moon is Illuminated
Dec 9
Waning Crescent
Dec 13
New
Dec 20
First Quarter
Dec 28
Full
Jan 4
Last Quarter

Hourly Weather History & Observations

Time (EST) Temp. Windchill Dew Point Humidity Pressure Visibility Wind Dir Wind Speed Gust Speed Precip Events Conditions
12:54 AM 44.1 °F 37.1 °F 43.0 °F 96% 29.99 in - West 15.0 mph - N/A   Unknown
1:54 AM 44.1 °F 37.4 °F 43.0 °F 96% 30.02 in - WNW 13.8 mph - N/A   Unknown
2:54 AM 44.1 °F 37.4 °F 42.1 °F 93% 30.05 in - West 13.8 mph - N/A   Unknown
3:54 AM 43.0 °F 36.0 °F 41.0 °F 93% 30.07 in - WNW 13.8 mph 21.9 mph N/A   Unknown
4:54 AM 43.0 °F 36.0 °F 39.0 °F 86% 30.09 in - WNW 13.8 mph 20.7 mph N/A   Unknown
5:54 AM 42.1 °F 35.7 °F 37.9 °F 85% 30.14 in - WNW 11.5 mph - N/A   Unknown
6:54 AM 41.0 °F 33.9 °F 37.9 °F 89% 30.17 in - NW 12.7 mph - N/A   Unknown
7:54 AM 41.0 °F 33.5 °F 37.9 °F 89% 30.21 in - NNW 13.8 mph - N/A   Unknown
8:54 AM 43.0 °F 36.8 °F 34.0 °F 71% 30.25 in - NNW 11.5 mph 19.6 mph N/A   Unknown
9:54 AM 45.0 °F 40.6 °F 34.0 °F 65% 30.27 in - NNW 8.1 mph - N/A   Unknown
10:54 AM 44.1 °F 39.5 °F 34.0 °F 68% 30.26 in - North 8.1 mph - N/A   Unknown
11:54 AM 43.0 °F 38.8 °F 32.0 °F 65% 30.25 in - North 6.9 mph - N/A   Unknown
12:54 PM 42.1 °F 38.4 °F 28.9 °F 60% 30.25 in - NNW 5.8 mph - N/A   Unknown
1:54 PM 42.1 °F 40.2 °F 28.0 °F 58% 30.25 in - Variable 3.5 mph - N/A   Unknown
2:54 PM 42.1 °F 40.2 °F 28.9 °F 60% 30.28 in - North 3.5 mph - N/A   Unknown
3:54 PM 39.0 °F 33.4 °F 27.0 °F 62% 30.29 in - ENE 8.1 mph - N/A   Unknown
4:54 PM 39.0 °F 32.3 °F 28.0 °F 65% 30.28 in - ENE 10.4 mph - N/A   Unknown
5:54 PM 39.0 °F 34.0 °F 30.0 °F 70% 30.29 in - ENE 6.9 mph - N/A   Unknown
6:54 PM 39.9 °F 35.1 °F 32.0 °F 73% 30.30 in - ENE 6.9 mph - N/A   Unknown
7:54 PM 41.0 °F 33.5 °F 34.0 °F 76% 30.29 in - East 13.8 mph - N/A   Unknown
8:54 PM 41.0 °F 33.9 °F 35.1 °F 79% 30.26 in - East 12.7 mph - 0.01 in   Unknown
9:54 PM 39.9 °F 32.9 °F 35.1 °F 83% 30.24 in - East 11.5 mph - N/A   Unknown
10:54 PM 39.9 °F 32.1 °F 37.0 °F 89% 30.20 in - East 13.8 mph - 0.04 in   Unknown
11:54 PM 39.9 °F 33.4 °F 37.9 °F 93% 30.18 in - ESE 10.4 mph - 0.03 in   Unknown